Springfield, IL

11:50 PM CST on February 24, 2017 (GMT -0600)
Capital

Weather History for KSPI - January, 2012

Change the Weather History Date:

Wednesday, January 4, 2012

  Actual Average Record
Temperature  
Mean Temperature 39 °F 27 °F  
Max Temperature 48 °F 35 °F 68 °F (1997)
Min Temperature 30 °F 19 °F -17 °F (1884)
Degree Days  
Heating Degree Days 26 38  
Month to date heating degree days 132 152  
Since 1 July heating degree days 1885 2292  
Cooling Degree Days 0 0  
Month to date cooling degree days 0 0  
Year to date cooling degree days 0 0  
Moisture  
Dew Point 22 °F    
Average Humidity 57    
Maximum Humidity 72    
Minimum Humidity 42    
Precipitation  
Precipitation 0.00 in 0.07 in 1.50 in (1993)
Month to date precipitation 0.02 0.28  
Year to date precipitation 0.02 0.28  
Snow  
Snow 0.00 in 0.30 in 8.00 in (1882)
Month to date snowfall T 0.9  
Since 1 July snowfall 0.1 7.1  
Snow Depth 0.00 in    
Sea Level Pressure  
Sea Level Pressure 30.08 in    
Wind  
Wind Speed 10 mph (WSW)    
Max Wind Speed 18 mph    
Max Gust Speed 25 mph    
Visibility 10 miles    
Events      
T = Trace of Precipitation, MM = Missing Value Source: NWS Daily Summary

Daily Weather History Graph

Daily Weather History Graph

Search for Another Location

Airport or City:

Trip Planner

Search our weather history database for the weather conditions in past years. The results will help you decide how hot, cold, wet, or windy it might be!

Date:

Astronomy

Jan. 04, 2012 Rise Set
Actual Time 7:20 AM CST 4:46 PM CST
Civil Twilight 6:50 AM CST 5:17 PM CST
Nautical Twilight 6:16 AM CST 5:50 PM CST
Astronomical Twilight 5:43 AM CST 6:23 PM CST
Moon 1:09 PM CST (1/4) 3:08 AM CST (1/4)
Length of Visible Light 10h 27m
Length of Day
9h 26m
Waxing Gibbous, 81% of the Moon is Illuminated
Jan 4
Waxing Gibbous
Jan 9
Full
Jan 16
Last Quarter
Jan 23
New
Jan 30
First Quarter

Hourly Weather History & Observations

Time (CST) Temp. Windchill Dew Point Humidity Pressure Visibility Wind Dir Wind Speed Gust Speed Precip Events Conditions
12:52 AM 32.0 °F 22.1 °F 12.9 °F 45% 30.07 in 10.0 mi SSW 13.8 mph - N/A   Clear
1:52 AM 32.0 °F 22.1 °F 14.0 °F 48% 30.03 in 10.0 mi SSW 13.8 mph - N/A   Clear
2:52 AM 32.0 °F 22.5 °F 15.1 °F 50% 30.04 in 10.0 mi SSW 12.7 mph - N/A   Clear
3:52 AM 32.0 °F 23.0 °F 15.1 °F 50% 30.03 in 10.0 mi SSW 11.5 mph - N/A   Clear
4:52 AM 33.1 °F 24.9 °F 16.0 °F 50% 30.03 in 10.0 mi SSW 10.4 mph - N/A   Partly Cloudy
5:52 AM 34.0 °F 26.6 °F 16.0 °F 48% 30.04 in 10.0 mi SSW 9.2 mph - N/A   Mostly Cloudy
6:52 AM 32.0 °F 25.6 °F 17.1 °F 54% 30.04 in 10.0 mi SW 6.9 mph - N/A   Clear
7:52 AM 32.0 °F 24.8 °F 17.1 °F 54% 30.04 in 10.0 mi WSW 8.1 mph - N/A   Clear
8:52 AM 36.0 °F 27.5 °F 19.9 °F 52% 30.06 in 10.0 mi WSW 12.7 mph - N/A   Clear
9:52 AM 39.9 °F 33.4 °F 21.9 °F 49% 30.08 in 10.0 mi West 10.4 mph - N/A   Clear
10:52 AM 43.0 °F 40.3 °F 24.1 °F 47% 30.06 in 10.0 mi WNW 4.6 mph - N/A   Clear
11:52 AM 46.9 °F - 25.0 °F 42% 30.03 in 10.0 mi WNW 11.5 mph - N/A   Clear
12:52 PM 46.9 °F - 25.0 °F 42% 30.04 in 10.0 mi West 15.0 mph - N/A   Clear
1:52 PM 48.0 °F - 26.1 °F 42% 30.05 in 10.0 mi NW 13.8 mph - N/A   Clear
2:52 PM 45.0 °F 37.6 °F 27.0 °F 49% 30.08 in 10.0 mi WNW 17.3 mph 20.7 mph N/A   Clear
3:52 PM 44.1 °F 37.7 °F 28.0 °F 53% 30.10 in 10.0 mi WNW 12.7 mph - N/A   Clear
4:52 PM 43.0 °F 38.2 °F 27.0 °F 53% 30.13 in 10.0 mi WNW 8.1 mph - N/A   Clear
5:52 PM 39.9 °F 34.5 °F 27.0 °F 60% 30.15 in 10.0 mi West 8.1 mph - N/A   Clear
6:52 PM 37.0 °F 30.4 °F 26.1 °F 65% 30.17 in 10.0 mi West 9.2 mph - N/A   Clear
7:52 PM 36.0 °F 29.0 °F 25.0 °F 64% 30.16 in 10.0 mi West 9.2 mph - N/A   Clear
8:52 PM 33.1 °F 25.5 °F 24.1 °F 70% 30.17 in 10.0 mi West 9.2 mph - N/A   Clear
9:52 PM 34.0 °F 28.8 °F 24.1 °F 67% 30.16 in 10.0 mi WSW 5.8 mph - N/A   Clear
10:52 PM 32.0 °F 27.5 °F 24.1 °F 73% 30.15 in 10.0 mi WSW 4.6 mph - N/A   Clear
11:52 PM 30.9 °F 26.2 °F 24.1 °F 76% 30.13 in 10.0 mi WSW 4.6 mph - N/A   Clear